[[{"header":{"parameterUnit":"m.s-1","parameterCategory":1,"la1":30.2991,"la2":30.254,"lo1":-89.0895,"lo2":-89.0444,"dy":0.0017,"dx":0.0017,"nx":28,"ny":28,"refTime":"2023-03-22T21:00:00:Z","depth":0,"parameterNumber":2,"parameterNumberName":"U-component_of_WINDS"},"data":[0,0,0,0,0,0,0,0,0,0,0,0,0,0,0,0,0,0,0,0,0,0,0,0,0,0,0,0,0,0,0,0,0,0,0,0,0,0,0,0,0,0,0,0,0,0,0,0,0,0,0,0,0,0,0,0,0,0,-2.342,-2.3419,0,-2.3386,-2.3385,-2.3385,-2.3342,-2.3341,-2.3341,-2.334,-2.3304,-2.3303,-2.3303,0,0,0,0,0,0,0,0,0,0,0,0,0,-2.3446,-2.3446,-2.342,-2.3419,-2.3419,-2.3386,-2.3385,-2.3385,-2.3342,-2.3341,-2.3341,-2.334,-2.3304,-2.3303,-2.3303,0,0,0,0,0,0,0,0,0,0,0,0,0,-2.3426,-2.3446,-2.342,-2.3394,-2.3391,-2.3386,-2.3385,-2.3385,-2.3342,-2.3341,-2.334,-2.3339,-2.3304,-2.3303,-2.3303,-2.332,0,0,-2.3301,-2.3301,0,0,0,0,0,0,0,0,-2.3427,-2.3425,-2.3398,-2.3395,-2.3392,-2.3367,-2.3381,-2.3363,-2.3343,-2.3361,-2.334,-2.3339,-2.3325,-2.3323,-2.3319,-2.3319,-2.3317,-2.3301,-2.3301,-2.3301,-2.3301,0,0,0,0,0,0,0,-2.3429,-2.3426,-2.3406,-2.3398,-2.3394,-2.3383,-2.3379,-2.3378,-2.3349,-2.3359,-2.3356,-2.3353,-2.3324,-2.332,-2.3318,-2.3317,-2.3301,-2.3301,-2.3301,-2.33,-2.3328,-2.3329,0,0,0,0,0,0,-2.3434,-2.3428,-2.3407,-2.3405,-2.3408,-2.3384,-2.3379,-2.3376,-2.3349,-2.3344,-2.3354,-2.3351,-2.3321,-2.3318,-2.3316,-2.3334,-2.3301,-2.33,-2.33,-2.3327,-2.3329,-2.333,0,0,0,0,0,0,-2.3435,-2.3433,-2.3409,-2.3416,-2.3412,-2.3384,-2.3381,-2.3376,-2.3372,-2.3345,-2.3339,-2.3354,-2.332,-2.3317,-2.332,-2.3332,-2.33,-2.33,-2.3326,-2.3328,-2.3329,-2.337,0,0,0,0,0,0,-2.3436,-2.3433,-2.344,-2.3416,-2.3411,-2.3413,-2.3382,-2.3376,-2.3371,-2.3367,-2.3344,-2.334,-2.3319,-2.3321,-2.3319,-2.3331,-2.3299,-2.3325,-2.3327,-2.3329,-2.3368,-2.3373,-2.3378,0,0,0,0,0,-2.3437,-2.3452,-2.344,-2.3438,-2.3419,-2.3414,-2.3411,-2.3388,-2.3373,-2.3379,-2.3361,-2.334,-2.3332,-2.3321,-2.3319,-2.3331,-2.3324,-2.3326,-2.3328,-2.3366,-2.3372,-2.3378,0,0,0,0,0,0,-2.3477,-2.3449,-2.3435,-2.3443,-2.3432,-2.3407,-2.3413,-2.3396,-2.3387,-2.3384,-2.3354,-2.335,-2.3355,-2.3344,-2.3333,-2.3346,-2.3325,-2.3327,-2.3353,-2.336,-2.3365,-2.3366,-2.3299,0,0,0,0,0,-2.3488,-2.3486,-2.3461,-2.3471,-2.3466,-2.3441,-2.3438,-2.3421,-2.3407,-2.3401,-2.3384,-2.3371,-2.3366,-2.3362,-2.3356,-2.3367,-2.336,-2.3374,-2.3379,-2.3383,-2.3385,-2.3389,-2.3394,-2.3337,-2.3337,-2.3337,0,0,-2.3508,-2.3492,-2.3493,-2.3479,-2.3468,-2.3466,-2.3437,-2.3437,-2.3435,-2.3401,-2.3402,-2.339,-2.3373,-2.338,-2.3382,-2.337,-2.34,-2.3386,-2.339,-2.3389,-2.3392,-2.3397,-2.3402,-2.3339,-2.3339,-2.3338,0,0,-2.3544,-2.3533,-2.3539,-2.3529,-2.3513,-2.3496,-2.3498,-2.3476,-2.3466,-2.3468,-2.3442,-2.344,-2.3431,-2.342,-2.3413,-2.3447,-2.3426,-2.3446,-2.3471,-2.3476,-2.348,-2.3484,-2.3494,-2.3499,-2.3448,-2.3448,-2.3448,0,-2.3571,-2.3569,-2.3545,-2.3546,-2.3541,-2.3511,-2.3517,-2.3508,-2.3491,-2.3487,-2.3475,-2.3463,-2.3449,-2.3453,-2.3461,-2.3457,-2.3458,-2.3447,-2.3481,-2.3485,-2.3488,-2.3498,-2.3502,-2.345,-2.345,-2.3449,-2.3449,0,-2.3602,-2.3601,-2.3609,-2.3592,-2.3588,-2.3592,-2.3568,-2.3566,-2.355,-2.3535,-2.3536,-2.352,-2.3509,-2.3509,-2.3493,-2.351,-2.3503,-2.3487,-2.3464,-2.3496,-2.3505,-2.3509,-2.3453,-2.3452,-2.3452,-2.3451,0,0,-2.3661,-2.3633,-2.3636,-2.3628,-2.3609,-2.3607,-2.361,-2.36,-2.3598,-2.3588,-2.3588,-2.3582,-2.3566,-2.3559,-2.3542,-2.3546,-2.3572,-2.3528,-2.3528,-2.3536,-2.3589,-2.36,-2.3605,-2.356,-2.356,-2.3561,-2.359,0,-2.3693,-2.3695,-2.3675,-2.3683,-2.3681,-2.3654,-2.3656,-2.3644,-2.363,-2.3626,-2.3611,-2.3606,-2.3587,-2.3582,-2.3585,-2.3568,-2.3582,-2.3566,-2.3559,-2.3559,-2.3562,-2.361,-2.3621,-2.3649,-2.3593,-2.3594,-2.3594,0,-2.3729,-2.3721,-2.3729,-2.3709,-2.3707,-2.371,-2.3699,-2.3696,-2.3682,-2.3671,-2.3664,-2.3644,-2.3645,-2.3625,-2.3625,-2.3615,-2.3611,-2.3602,-2.3603,-2.3599,-2.3577,-2.3606,-2.3658,-2.3661,-2.3599,-2.3599,-2.3598,0,-2.3769,-2.376,-2.3764,-2.3758,-2.3736,-2.3738,-2.3728,-2.3713,-2.3709,-2.37,-2.3696,-2.3687,-2.3682,-2.3675,-2.3654,-2.3641,-2.3656,-2.3634,-2.3646,-2.3646,-2.3648,-2.3648,-2.3698,-2.3649,-2.3649,-2.3649,-2.3649,0,-2.3805,-2.3811,-2.3782,-2.3784,-2.3789,-2.3766,-2.3772,-2.3759,-2.3747,-2.3745,-2.3722,-2.3721,-2.3694,-2.369,-2.3673,-2.3675,-2.3673,-2.3664,-2.3659,-2.3665,-2.3666,-2.3661,-2.3657,-2.365,-2.365,-2.365,-2.3649,0,-2.385,-2.3831,-2.3833,-2.3812,-2.3807,-2.3812,-2.3793,-2.3794,-2.3779,-2.3778,-2.3776,-2.3753,-2.3747,-2.3726,-2.3715,-2.3704,-2.371,-2.3702,-2.3715,-2.3712,-2.3724,-2.3723,-2.3771,-2.3776,-2.3725,-2.3726,-2.3726,0,-2.3873,-2.3877,-2.3857,-2.3855,-2.3846,-2.3843,-2.3839,-2.3816,-2.3812,-2.3797,-2.3799,-2.3792,-2.3784,-2.3776,-2.3758,-2.3749,-2.374,-2.3757,-2.3738,-2.3744,-2.3738,-2.3737,-2.3737,-2.3761,-2.3762,-2.3762,-2.3763,0,-2.3916,-2.3907,-2.3901,-2.3893,-2.3888,-2.388,-2.3871,-2.3871,-2.3845,-2.3842,-2.3836,-2.3831,-2.382,-2.3812,-2.3801,-2.379,-2.3772,-2.3769,-2.3771,-2.3776,-2.3783,-2.3778,-2.3724,-2.3768,-2.3767,-2.3767,-2.3766,-2.3766,-2.395,-2.3952,-2.3938,-2.3932,-2.3923,-2.3915,-2.3915,-2.3901,-2.3896,-2.3885,-2.3872,-2.3868,-2.3854,-2.3837,-2.3828,-2.3824,-2.3813,-2.3817,-2.3817,-2.3818,-2.382,-2.3785,-2.3822,-2.3821,-2.3821,-2.3821,-2.3821,0,-2.399,-2.398,-2.3976,-2.3964,-2.3959,-2.3944,-2.3933,-2.393,-2.3927,-2.3916,-2.3909,-2.3903,-2.3895,-2.3877,-2.3868,-2.3868,-2.3859,-2.3866,-2.3865,-2.3863,-2.3831,-2.3829,-2.3874,-2.3874,-2.3874,-2.3874,-2.3874,-2.3874,-2.401,-2.4013,-2.4002,-2.3999,-2.3989,-2.3985,-2.398,-2.3972,-2.3963,-2.3956,-2.3951,-2.3939,-2.3925,-2.3915,-2.3907,-2.3902,-2.3899,-2.3909,-2.3901,-2.387,-2.3865,-2.386,-2.3859,-2.3909,-2.3909,-2.3933,-2.3933,-2.3933]},{"header":{"parameterUnit":"m.s-1","parameterCategory":1,"la1":30.2991,"la2":30.254,"lo1":-89.0895,"lo2":-89.0444,"dy":0.0017,"dx":0.0017,"nx":28,"ny":28,"refTime":"2023-03-22T21:00:00:Z","depth":0,"parameterNumber":3,"parameterNumberName":"V-component_of_WINDS"},"data":[0,0,0,0,0,0,0,0,0,0,0,0,0,0,0,0,0,0,0,0,0,0,0,0,0,0,0,0,0,0,0,0,0,0,0,0,0,0,0,0,0,0,0,0,0,0,0,0,0,0,0,0,0,0,0,0,0,0,3.5244,3.5244,0,3.5253,3.5253,3.5253,3.5218,3.5217,3.5216,3.5215,3.5222,3.5223,3.5225,0,0,0,0,0,0,0,0,0,0,0,0,0,3.5197,3.5198,3.5244,3.5244,3.5244,3.5253,3.5253,3.5253,3.5218,3.5217,3.5216,3.5215,3.5222,3.5223,3.5225,0,0,0,0,0,0,0,0,0,0,0,0,0,3.5212,3.5198,3.5244,3.5228,3.5227,3.5253,3.5253,3.5253,3.5219,3.5217,3.5216,3.5214,3.5221,3.5223,3.5225,3.5266,0,0,3.523,3.5231,0,0,0,0,0,0,0,0,3.5212,3.5214,3.523,3.5229,3.5228,3.5233,3.5239,3.5258,3.5219,3.5222,3.5215,3.5213,3.5227,3.5228,3.5233,3.5267,3.5267,3.523,3.5231,3.5232,3.5232,0,0,0,0,0,0,0,3.5211,3.5214,3.5248,3.5231,3.5229,3.522,3.5221,3.5242,3.5233,3.5221,3.5219,3.522,3.5226,3.5232,3.5233,3.5267,3.523,3.5232,3.5233,3.5233,3.5337,3.5339,0,0,0,0,0,0,3.5212,3.5213,3.5247,3.5248,3.5216,3.5222,3.5223,3.5233,3.5232,3.5231,3.5222,3.5219,3.5229,3.5231,3.5233,3.5284,3.5232,3.5234,3.5235,3.5336,3.5338,3.534,0,0,0,0,0,0,3.5211,3.5215,3.5247,3.523,3.5233,3.5225,3.5236,3.5234,3.5239,3.5233,3.5231,3.5229,3.5228,3.5231,3.5259,3.5283,3.5234,3.5236,3.5334,3.5336,3.5339,3.5384,0,0,0,0,0,0,3.521,3.5215,3.5231,3.523,3.5234,3.5273,3.5238,3.5235,3.5243,3.5239,3.5239,3.5238,3.5227,3.5257,3.5261,3.5285,3.5237,3.5331,3.5335,3.5338,3.538,3.5388,3.5394,0,0,0,0,0,3.5208,3.5242,3.5232,3.5236,3.5254,3.5274,3.5277,3.5264,3.5245,3.5261,3.5257,3.5238,3.528,3.526,3.5264,3.5289,3.533,3.5334,3.5338,3.5377,3.5386,3.5394,0,0,0,0,0,0,3.5244,3.5242,3.523,3.5265,3.5271,3.5269,3.5288,3.5274,3.5284,3.528,3.5263,3.5264,3.5296,3.5295,3.5273,3.533,3.5301,3.5306,3.533,3.5339,3.5345,3.5346,3.5239,0,0,0,0,0,3.5256,3.5274,3.527,3.5302,3.5305,3.5296,3.5305,3.5295,3.5299,3.5301,3.5299,3.5304,3.5318,3.5328,3.5341,3.5379,3.538,3.5399,3.5406,3.5411,3.5417,3.5439,3.5448,3.5352,3.5352,3.5352,0,0,3.5281,3.5282,3.5294,3.5309,3.5312,3.5331,3.5298,3.5319,3.5333,3.5304,3.5332,3.533,3.5334,3.5369,3.5384,3.5369,3.5443,3.5416,3.5421,3.5423,3.5444,3.5453,3.5461,3.5355,3.5354,3.5354,0,0,3.5337,3.5339,3.5367,3.5371,3.5376,3.537,3.5377,3.5378,3.5377,3.5404,3.5384,3.5399,3.5424,3.5428,3.5434,3.5494,3.5478,3.5498,3.5535,3.5557,3.5565,3.5572,3.5595,3.5604,3.5503,3.5503,3.5503,0,3.5368,3.5396,3.5382,3.5405,3.5413,3.5389,3.5418,3.5422,3.5431,3.5437,3.542,3.5452,3.5453,3.5489,3.5504,3.5509,3.5517,3.5499,3.5565,3.5572,3.5578,3.56,3.5609,3.5505,3.5505,3.5505,3.5505,0,3.5434,3.5454,3.5475,3.5487,3.5497,3.5522,3.5513,3.5524,3.5514,3.551,3.5539,3.5539,3.5553,3.556,3.5549,3.5596,3.5587,3.5568,3.5539,3.559,3.5611,3.5619,3.5509,3.5508,3.5507,3.5507,0,0,3.5513,3.5518,3.5526,3.5532,3.5537,3.5552,3.5577,3.5591,3.5603,3.5609,3.5631,3.5653,3.5636,3.5642,3.5632,3.5651,3.5701,3.563,3.563,3.5645,3.5755,3.5771,3.5781,3.569,3.5692,3.5693,3.5756,0,3.557,3.5614,3.5603,3.5646,3.5666,3.5644,3.5665,3.5671,3.5668,3.5684,3.568,3.5697,3.5672,3.5676,3.5694,3.5692,3.5724,3.5686,3.5711,3.5712,3.5713,3.5791,3.5808,3.5867,3.5763,3.5765,3.5765,0,3.5642,3.5654,3.57,3.5705,3.5712,3.5732,3.5746,3.576,3.5767,3.5763,3.5771,3.5757,3.5782,3.5752,3.5787,3.5762,3.5771,3.5771,3.5773,3.5776,3.5743,3.5799,3.5885,3.5895,3.5778,3.5777,3.5776,0,3.5698,3.5726,3.5758,3.5763,3.5768,3.5783,3.5785,3.579,3.58,3.5811,3.5818,3.5831,3.5839,3.585,3.584,3.5819,3.5877,3.5846,3.5876,3.5877,3.5891,3.5891,3.5983,3.5893,3.5893,3.5893,3.5893,0,3.5764,3.5794,3.5783,3.5803,3.5836,3.5823,3.5856,3.5856,3.586,3.588,3.586,3.5879,3.5864,3.5881,3.5873,3.5905,3.5907,3.5906,3.5904,3.5909,3.591,3.5917,3.5913,3.5895,3.5895,3.5894,3.5894,0,3.5833,3.5827,3.5861,3.5864,3.5865,3.5889,3.5891,3.591,3.5906,3.5931,3.5936,3.593,3.5949,3.594,3.596,3.5955,3.5996,3.5987,3.5995,3.5993,3.6026,3.6024,3.6127,3.614,3.604,3.6041,3.6042,0,3.5877,3.59,3.5906,3.5918,3.5923,3.5942,3.5953,3.5941,3.5953,3.5963,3.5981,3.5999,3.6013,3.6045,3.6042,3.6058,3.6051,3.6086,3.6053,3.6058,3.6054,3.6054,3.6057,3.6093,3.6094,3.6095,3.6096,0,3.5956,3.5953,3.5969,3.5986,3.6,3.6012,3.6022,3.6033,3.6022,3.6037,3.6057,3.6068,3.609,3.6109,3.6123,3.6125,3.6109,3.6106,3.6114,3.6121,3.6126,3.6126,3.6015,3.6104,3.6103,3.6103,3.6102,3.6102,3.6015,3.6036,3.6044,3.6064,3.6071,3.6081,3.61,3.6099,3.6116,3.6134,3.6125,3.615,3.6157,3.6174,3.6179,3.6198,3.6184,3.6195,3.6199,3.6202,3.6208,3.6121,3.62,3.6199,3.6199,3.6199,3.6199,0,3.6096,3.61,3.6119,3.6135,3.6151,3.6136,3.6147,3.6161,3.6184,3.6191,3.6206,3.6231,3.625,3.6249,3.6266,3.6281,3.6275,3.6286,3.6286,3.6288,3.6218,3.621,3.6292,3.6292,3.6292,3.6292,3.6292,3.6292,3.614,3.6174,3.6172,3.6209,3.6213,3.6239,3.6247,3.6257,3.6263,3.6292,3.6308,3.6308,3.6312,3.633,3.6346,3.6346,3.6354,3.6369,3.6366,3.6301,3.6292,3.6283,3.6276,3.637,3.637,3.6434,3.6435,3.6435]}]]